EW3608 Weather Reports


time (UTC)temp
C
wind
direction
speed
KPH
gust
KPH
rain 1hr
cm
rain 24hr
cm
rain mn
cm
humidity
%
barometer
mb
20260906230005 29 340 1.6 4.8 0.00 0.00 0.00 37 1015.6
20260906225506 29 328 0.0 3.2 0.00 0.00 0.00 37 1015.7
20260906225008 29 333 0.0 3.2 0.00 0.00 0.00 37 1015.7
20260906224518 29 292 0.0 6.4 0.00 0.00 0.00 36 1015.7
20260906224013 30 319 0.0 6.4 0.00 0.00 0.00 36 1015.5
20260906223514 30 277 1.6 8.0 0.00 0.00 0.00 36 1015.7
20260906223004 30 333 0.0 8.0 0.00 0.00 0.00 35 1015.7
20260906222503 30 287 3.2 6.4 0.00 0.00 0.00 35 1015.7
20260906222003 30 350 0.0 6.4 0.00 0.00 0.00 33 1015.7
20260906221512 31 311 0.0 6.4 0.00 0.00 0.00 33 1015.7
20260906221008 31 294 1.6 8.0 0.00 0.00 0.00 33 1015.7
20260906220511 31 263 0.0 8.0 0.00 0.00 0.00 33 1015.8
20260906220028 31 346 0.0 3.2 0.00 0.00 0.00 34 1015.9
20260906215514 31 360 0.0 6.4 0.00 0.00 0.00 33 1016.0
20260906215003 31 333 1.6 6.4 0.00 0.00 0.00 33 1016.0
20260906214505 31 250 1.6 6.4 0.00 0.00 0.00 33 1016.0
20260906214003 31 11 1.6 9.7 0.00 0.00 0.00 33 1016.1
20260906213511 31 280 1.6 9.7 0.00 0.00 0.00 34 1016.3
20260906213016 31 335 1.6 8.0 0.00 0.00 0.00 34 1016.3
20260906212510 31 329 1.6 9.7 0.00 0.00 0.00 34 1016.5
20260906212014 30 288 1.6 9.7 0.00 0.00 0.00 34 1016.5
20260906211540 30 304 3.2 12.9 0.00 0.00 0.00 34 1016.7
20260906211003 29 345 4.8 12.9 0.00 0.00 0.00 34 1016.8
20260906210503 29 350 4.8 8.0 0.00 0.00 0.00 35 1016.9
20260906210014 29 360 0.0 8.0 0.00 0.00 0.00 34 1017.1
20260906205508 29 338 1.6 8.0 0.00 0.00 0.00 34 1017.1
20260906205011 29 300 0.0 8.0 0.00 0.00 0.00 33 1017.1
20260906204523 30 35 4.8 8.0 0.00 0.00 0.00 33 1017.1
20260906204019 29 276 1.6 6.4 0.00 0.00 0.00 35 1017.1
20260906203515 29 33 1.6 6.4 0.00 0.00 0.00 35 1017.2
20260906203004 29 321 1.6 6.4 0.00 0.00 0.00 35 1017.3
20260906202506 29 13 1.6 9.7 0.00 0.00 0.00 36 1017.3
20260906202011 30 18 3.2 9.7 0.00 0.00 0.00 33 1017.3
20260906201534 30 308 3.2 6.4 0.00 0.00 0.00 34 1017.4
20260906201011 30 261 3.2 6.4 0.00 0.00 0.00 32 1017.3
20260906200513 30 59 1.6 9.7 0.00 0.00 0.00 34 1017.4
20260906200027 30 351 4.8 9.7 0.00 0.00 0.00 31 1017.4
20260906195515 30 352 3.2 8.0 0.00 0.00 0.00 34 1017.5
20260906195005 30 50 3.2 14.5 0.00 0.00 0.00 32 1017.7
20260906194507 29 57 4.8 14.5 0.00 0.00 0.00 31 1017.6
20260906194006 30 56 3.2 11.3 0.00 0.00 0.00 34 1017.6
20260906193510 29 78 3.2 11.3 0.00 0.00 0.00 34 1017.7
20260906193023 29 26 1.6 11.3 0.00 0.00 0.00 34 1017.8
20260906192511 29 50 3.2 8.0 0.00 0.00 0.00 38 1017.8
20260906192015 28 31 1.6 8.0 0.00 0.00 0.00 38 1017.9
20260906191531 28 19 1.6 8.0 0.00 0.00 0.00 39 1017.9
20260906191006 28 34 3.2 12.9 0.00 0.00 0.00 38 1018.0
20260906190505 28 85 3.2 14.5 0.00 0.00 0.00 39 1018.1
20260906190013 28 19 1.6 14.5 0.00 0.00 0.00 41 1018.1
20260906185513 28 73 6.4 14.5 0.00 0.00 0.00 42 1018.3
20260906185017 28 22 4.8 11.3 0.00 0.00 0.00 42 1018.4
20260906184527 28 58 3.2 8.0 0.00 0.00 0.00 41 1018.6
20260906184019 27 51 1.6 8.0 0.00 0.00 0.00 42 1018.7
20260906183516 27 32 3.2 8.0 0.00 0.00 0.00 43 1018.9
20260906183036 27 82 3.2 6.4 0.00 0.00 0.00 45 1019.0
20260906182517 27 30 3.2 6.4 0.00 0.00 0.00 44 1019.2
20260906182018 27 71 3.2 9.7 0.00 0.00 0.00 45 1019.2
20260906181519 27 26 3.2 9.7 0.00 0.00 0.00 44 1019.2
20260906181015 27 73 3.2 8.0 0.00 0.00 0.00 45 1019.3
20260906180516 27 26 1.6 6.4 0.00 0.00 0.00 45 1019.3
20260906180047 27 86 1.6 6.4 0.00 0.00 0.00 45 1019.4
20260906175517 26 185 1.6 6.4 0.00 0.00 0.00 44 1019.5
20260906175019 26 24 1.6 6.4 0.00 0.00 0.00 46 1019.6
20260906174548 26 144 0.0 4.8 0.00 0.00 0.00 45 1019.8
20260906174018 26 195 1.6 4.8 0.00 0.00 0.00 45 1019.9
20260906173514 26 74 1.6 6.4 0.00 0.00 0.00 46 1020.0
20260906173023 26 159 0.0 6.4 0.00 0.00 0.00 47 1020.2
20260906172513 26 67 0.0 6.4 0.00 0.00 0.00 46 1020.2
20260906172017 26 63 1.6 4.8 0.00 0.00 0.00 46 1020.3
20260906171533 26 352 1.6 3.2 0.00 0.00 0.00 46 1020.5
20260906171016 25 360 1.6 4.8 0.00 0.00 0.00 49 1020.5
20260906170517 25 31 1.6 4.8 0.00 0.00 0.00 47 1020.5
20260906170018 25 52 1.6 4.8 0.00 0.00 0.00 47 1020.5
20260906165512 25 45 1.6 4.8 0.00 0.00 0.00 47 1020.6
20260906165014 25 76 3.2 4.8 0.00 0.00 0.00 51 1020.7
20260906164528 24 56 0.0 3.2 0.00 0.00 0.00 54 1020.7
20260906164016 24 145 1.6 4.8 0.00 0.00 0.00 55 1020.7
20260906163517 23 150 0.0 4.8 0.00 0.00 0.00 59 1020.6
20260906163034 23 98 1.6 4.8 0.00 0.00 0.00 59 1020.7
20260906162518 23 60 0.0 4.8 0.00 0.00 0.00 60 1020.7
20260906162009 22 339 3.2 4.8 0.00 0.00 0.00 61 1020.6
20260906161525 22 63 1.6 4.8 0.00 0.00 0.00 62 1020.6
20260906161015 22 62 0.0 6.4 0.00 0.00 0.00 63 1020.6
20260906160516 22 12 0.0 6.4 0.00 0.00 0.00 63 1020.6
20260906160035 22 69 3.2 4.8 0.00 0.00 0.00 62 1020.6
20260906155519 22 31 1.6 6.4 0.00 0.00 0.00 64 1020.6
20260906155017 22 102 1.6 6.4 0.00 0.00 0.00 65 1020.5
20260906154535 21 30 0.0 4.8 0.00 0.00 0.00 66 1020.5
20260906154010 21 73 1.6 4.8 0.00 0.00 0.00 66 1020.5
20260906153514 21 55 0.0 3.2 0.00 0.00 0.00 69 1020.5
20260906153035 21 116 1.6 4.8 0.00 0.00 0.00 69 1020.5
20260906152504 21 19 3.2 4.8 0.00 0.00 0.00 70 1020.6
20260906152003 20 103 1.6 4.8 0.00 0.00 0.00 71 1020.6
20260906151510 20 59 0.0 4.8 0.00 0.00 0.00 72 1020.6
20260906151009 20 29 1.6 3.2 0.00 0.00 0.00 72 1020.7
20260906150510 19 49 1.6 3.2 0.00 0.00 0.00 73 1020.7
20260906150024 19 47 0.0 3.2 0.00 0.00 0.00 75 1020.7
20260906145511 18 43 1.6 3.2 0.00 0.00 0.00 75 1020.8
20260906145014 18 90 0.0 3.2 0.00 0.00 0.00 76 1020.8
20260906144504 18 90 0.0 3.2 0.00 0.00 0.00 76 1020.6
20260906144004 18 90 0.0 3.2 0.00 0.00 0.00 77 1020.7
20260906143508 18 86 0.0 3.2 0.00 0.00 0.00 77 1020.8
20260906143018 18 28 0.0 3.2 0.00 0.00 0.00 76 1020.8
20260906142511 18 13 0.0 3.2 0.00 0.00 0.00 77 1020.8
20260906142012 18 17 1.6 3.2 0.00 0.00 0.00 77 1020.8
20260906141525 17 254 0.0 4.8 0.00 0.00 0.00 78 1020.6
20260906141015 17 76 1.6 4.8 0.00 0.00 0.00 78 1020.6
20260906140505 17 63 0.0 3.2 0.00 0.00 0.00 77 1020.7
20260906140006 16 46 0.0 3.2 0.00 0.00 0.00 77 1020.6
20260906135508 16 300 0.0 3.2 0.00 0.00 0.00 76 1020.5
20260906135007 16 300 0.0 3.2 0.00 0.00 0.00 77 1020.5
20260906134522 15 299 0.0 1.6 0.00 0.00 0.00 76 1020.5
20260906134011 15 299 0.0 1.6 0.00 0.00 0.00 77 1020.5
20260906133512 15 226 0.0 1.6 0.00 0.00 0.00 78 1020.6
20260906133030 15 225 0.0 0.0 0.00 0.00 0.00 79 1020.6
20260906132504 15 225 0.0 3.2 0.00 0.00 0.00 80 1020.6
20260906132008 15 225 0.0 3.2 0.00 0.00 0.00 80 1020.6
20260906131517 14 225 0.0 1.6 0.00 0.00 0.00 80 1020.6
20260906131007 14 225 0.0 0.0 0.00 0.00 0.00 80 1020.6
20260906130511 14 225 0.0 0.0 0.00 0.00 0.00 80 1020.6
20260906130026 14 225 0.0 1.6 0.00 0.00 0.00 79 1020.6
20260906125518 15 225 0.0 3.2 0.00 0.00 0.00 79 1020.5
20260906125025 14 225 0.0 3.2 0.00 0.00 0.00 80 1020.5
20260906124506 15 215 0.0 1.6 0.00 0.00 0.00 79 1020.5
20260906124007 15 215 0.0 3.2 0.00 0.00 0.00 79 1020.4
20260906123506 15 215 0.0 3.2 0.00 0.00 0.00 78 1020.3
20260906123032 15 215 0.0 0.0 0.00 0.00 0.00 78 1020.2
20260906122510 15 215 0.0 1.6 0.00 0.00 0.00 78 1020.2
20260906122002 15 215 0.0 3.2 0.00 0.00 0.00 77 1020.3
20260906121504 15 215 0.0 3.2 0.00 0.00 0.00 77 1020.4
20260906121002 15 256 0.0 3.2 0.00 0.00 0.00 77 1020.3
20260906120504 15 256 0.0 3.2 0.00 0.00 0.00 77 1020.2
20260906120008 15 256 0.0 3.2 0.00 0.00 0.00 76 1020.3
20260906115514 15 256 0.0 3.2 0.00 0.00 0.00 76 1020.1
20260906115012 15 286 0.0 3.2 0.00 0.00 0.00 76 1020.2
20260906114525 15 298 0.0 3.2 0.00 0.00 0.00 77 1020.2
20260906114003 15 298 0.0 3.2 0.00 0.00 0.00 76 1020.3
20260906113503 15 298 0.0 3.2 0.00 0.00 0.00 76 1020.2
20260906113007 15 296 0.0 3.2 0.00 0.00 0.00 75 1020.1
20260906112502 15 296 0.0 0.0 0.00 0.00 0.00 74 1020.1
20260906112008 15 296 0.0 0.0 0.00 0.00 0.00 74 1020.0
20260906111518 15 296 0.0 3.2 0.00 0.00 0.00 74 1019.9
20260906111010 15 296 0.0 3.2 0.00 0.00 0.00 74 1019.8
20260906110515 15 296 0.0 3.2 0.00 0.00 0.00 74 1019.8
20260906110004 15 289 0.0 3.2 0.00 0.00 0.00 74 1020.0
20260906105504 15 226 0.0 3.2 0.00 0.00 0.00 74 1020.0
20260906105004 15 226 0.0 3.2 0.00 0.00 0.00 73 1020.1
20260906104512 15 227 0.0 3.2 0.00 0.00 0.00 72 1020.1
20260906104006 15 192 0.0 0.0 0.00 0.00 0.00 72 1020.1
20260906103507 15 192 0.0 0.0 0.00 0.00 0.00 71 1020.0
20260906103019 15 192 0.0 0.0 0.00 0.00 0.00 71 1020.0
20260906102513 15 192 0.0 1.6 0.00 0.00 0.00 70 1019.9
20260906102016 16 192 0.0 3.2 0.00 0.00 0.00 69 1020.1
20260906101516 16 192 0.0 3.2 0.00 0.00 0.00 69 1020.2
20260906101005 16 192 0.0 3.2 0.00 0.00 0.00 69 1020.1
20260906100511 16 192 0.0 3.2 0.00 0.00 0.00 68 1020.3
20260906100017 16 190 0.0 3.2 0.00 0.00 0.00 67 1020.2
20260906095511 16 200 0.0 3.2 0.00 0.00 0.00 67 1020.1
20260906095011 16 198 0.0 3.2 0.00 0.00 0.00 67 1020.2
20260906094523 16 198 0.0 3.2 0.00 0.00 0.00 66 1020.1
20260906094014 16 198 0.0 3.2 0.00 0.00 0.00 65 1020.0
20260906093506 16 198 0.0 0.0 0.00 0.00 0.00 64 1020.0
20260906093017 16 198 0.0 0.0 0.00 0.00 0.00 64 1020.0
20260906092508 17 198 0.0 3.2 0.00 0.00 0.00 63 1019.9
20260906092013 17 198 0.0 3.2 0.00 0.00 0.00 62 1019.9
20260906091518 17 199 0.0 3.2 0.00 0.00 0.00 62 1019.8
20260906091013 17 175 0.0 3.2 0.00 0.00 0.00 62 1019.8
20260906090513 17 175 0.0 3.2 0.00 0.00 0.00 62 1019.8
20260906090051 17 42 0.0 3.2 0.00 0.00 0.00 61 1019.6
20260906085503 17 42 0.0 3.2 0.00 0.00 0.00 61 1019.5
20260906085004 17 42 0.0 3.2 0.00 0.00 0.00 61 1019.6
20260906084512 17 42 0.0 3.2 0.00 0.00 0.00 61 1019.4
20260906084010 17 42 0.0 3.2 0.00 0.00 0.00 61 1019.5
20260906083512 17 42 0.0 3.2 0.00 0.00 0.00 61 1019.3
20260906083029 17 5 0.0 3.2 0.00 0.00 0.00 62 1019.3
20260906082516 17 50 0.0 3.2 0.00 0.00 0.00 62 1019.3
20260906082019 17 51 0.0 3.2 0.00 0.00 0.00 61 1019.2
20260906081503 18 51 0.0 3.2 0.00 0.00 0.00 61 1019.2
20260906081007 18 59 1.6 3.2 0.00 0.00 0.00 59 1019.2
20260906080508 18 263 0.0 3.2 0.00 0.00 0.00 58 1019.2
20260906080019 18 263 0.0 3.2 0.00 0.00 0.00 58 1019.3
20260906075512 18 263 0.0 3.2 0.00 0.00 0.00 57 1019.4
20260906075015 18 263 0.0 3.2 0.00 0.00 0.00 57 1019.4
20260906074528 18 263 0.0 3.2 0.00 0.00 0.00 56 1019.4
20260906074015 18 263 0.0 3.2 0.00 0.00 0.00 56 1019.3
20260906073504 19 263 0.0 1.6 0.00 0.00 0.00 55 1019.4
20260906073007 19 263 0.0 1.6 0.00 0.00 0.00 55 1019.4
20260906072506 19 263 0.0 0.0 0.00 0.00 0.00 53 1019.5
20260906072014 20 263 0.0 3.2 0.00 0.00 0.00 53 1019.4
20260906071523 20 263 0.0 3.2 0.00 0.00 0.00 53 1019.4
20260906071011 20 278 0.0 3.2 0.00 0.00 0.00 53 1019.4
20260906070518 20 290 0.0 3.2 0.00 0.00 0.00 52 1019.4
20260906070036 20 26 0.0 3.2 0.00 0.00 0.00 51 1019.3
20260906065507 21 26 0.0 3.2 0.00 0.00 0.00 51 1019.3
20260906065008 21 25 0.0 3.2 0.00 0.00 0.00 51 1019.3
20260906064515 21 63 0.0 3.2 0.00 0.00 0.00 49 1019.3
20260906064010 21 55 0.0 3.2 0.00 0.00 0.00 49 1019.4
20260906063513 21 140 0.0 3.2 0.00 0.00 0.00 47 1019.4
20260906063041 22 203 0.0 3.2 0.00 0.00 0.00 46 1019.4
20260906062515 22 203 0.0 3.2 0.00 0.00 0.00 44 1019.4
20260906062017 22 203 0.0 3.2 0.00 0.00 0.00 43 1019.4
20260906061510 22 203 0.0 1.6 0.00 0.00 0.00 42 1019.5
20260906061007 23 203 0.0 1.6 0.00 0.00 0.00 42 1019.4
20260906060509 23 203 0.0 3.2 0.00 0.00 0.00 42 1019.3
20260906060020 23 203 0.0 4.8 0.00 0.00 0.00 41 1019.2
20260906055519 23 344 1.6 4.8 0.00 0.00 0.00 41 1019.1
20260906055015 23 360 0.0 3.2 0.00 0.00 0.00 40 1019.2
20260906054533 23 18 0.0 3.2 0.00 0.00 0.00 40 1019.4
20260906054017 23 18 0.0 3.2 0.00 0.00 0.00 40 1019.6
20260906053506 23 167 0.0 3.2 0.00 0.00 0.00 40 1019.8
20260906053010 23 156 1.6 3.2 0.00 0.00 0.00 40 1019.9
20260906052508 23 165 0.0 3.2 0.00 0.00 0.00 40 1020.0
20260906052016 23 171 0.0 4.8 0.00 0.00 0.00 41 1020.1
20260906051540 23 178 0.0 4.8 0.00 0.00 0.00 41 1020.1
20260906051016 22 134 0.0 3.2 0.00 0.00 0.00 42 1019.9
20260906050517 22 120 1.6 3.2 0.00 0.00 0.00 44 1019.8
20260906050008 22 168 0.0 3.2 0.00 0.00 0.00 44 1019.7
20260906045507 22 175 0.0 3.2 0.00 0.00 0.00 43 1019.4
20260906045012 23 101 0.0 3.2 0.00 0.00 0.00 42 1019.3
20260906044516 23 105 0.0 3.2 0.00 0.00 0.00 42 1019.2
20260906044016 23 106 0.0 3.2 0.00 0.00 0.00 43 1019.1
20260906043515 23 183 0.0 3.2 0.00 0.00 0.00 42 1019.1
20260906043029 23 184 0.0 3.2 0.00 0.00 0.00 42 1019.1
20260906042517 23 128 0.0 4.8 0.00 0.00 0.00 42 1018.9
20260906042004 23 80 0.0 4.8 0.00 0.00 0.00 41 1018.8
20260906041511 23 63 1.6 3.2 0.00 0.00 0.00 39 1018.8
20260906041011 23 248 0.0 3.2 0.00 0.00 0.00 38 1018.7
20260906040511 23 248 0.0 4.8 0.00 0.00 0.00 38 1018.6
20260906040033 23 245 0.0 8.0 0.00 0.00 0.00 38 1018.6
20260906035512 23 248 1.6 8.0 0.00 0.00 0.00 38 1018.5
20260906035016 23 220 0.0 3.2 0.00 0.00 0.00 39 1018.5
20260906034537 23 96 0.0 3.2 0.00 0.00 0.00 40 1018.4
20260906034008 24 58 1.6 3.2 0.00 0.00 0.00 40 1018.3
20260906033508 24 227 1.6 6.4 0.00 0.00 0.00 39 1018.2
20260906033015 25 36 0.0 6.4 0.00 0.00 0.00 39 1018.1
20260906032512 25 63 3.2 6.4 0.00 0.00 0.00 38 1018.1
20260906032014 25 63 1.6 3.2 0.00 0.00 0.00 35 1018.0
20260906031537 25 232 0.0 3.2 0.00 0.00 0.00 34 1017.9
20260906031015 26 232 0.0 3.2 0.00 0.00 0.00 33 1017.9
20260906030520 26 229 0.0 3.2 0.00 0.00 0.00 33 1017.7
20260906030007 26 229 0.0 8.0 0.00 0.00 0.00 33 1017.7
20260906025511 26 294 0.0 8.0 0.00 0.00 0.00 33 1017.6
20260906025010 26 322 0.0 6.4 0.00 0.00 0.00 32 1017.5
20260906024524 26 266 0.0 6.4 0.00 0.00 0.00 32 1017.4
20260906024014 26 346 1.6 6.4 0.00 0.00 0.00 32 1017.4
20260906023516 26 280 1.6 6.4 0.00 0.00 0.00 32 1017.3
20260906023031 27 348 0.0 4.8 0.00 0.00 0.00 32 1017.3
20260906022518 27 315 1.6 4.8 0.00 0.00 0.00 31 1017.2
20260906022007 27 350 0.0 3.2 0.00 0.00 0.00 31 1017.0
20260906021512 27 350 0.0 3.2 0.00 0.00 0.00 30 1016.9
20260906021011 27 350 0.0 3.2 0.00 0.00 0.00 29 1016.8
20260906020513 28 350 1.6 9.7 0.00 0.00 0.00 29 1016.8
20260906020027 28 257 1.6 8.0 0.00 0.00 0.00 29 1016.9
20260906015516 28 221 1.6 11.3 0.00 0.00 0.00 29 1017.1
20260906015016 27 292 3.2 11.3 0.00 0.00 0.00 29 1017.1
20260906014534 27 338 1.6 9.7 0.00 0.00 0.00 29 1017.1
20260906014009 28 235 0.0 4.8 0.00 0.00 0.00 29 1017.1
20260906013509 28 287 1.6 4.8 0.00 0.00 0.00 29 1017.0
20260906013020 28 240 0.0 6.4 0.00 0.00 0.00 29 1016.8
20260906012513 28 283 1.6 9.7 0.00 0.00 0.00 29 1016.8
20260906012015 28 193 1.6 9.7 0.00 0.00 0.00 28 1016.9
20260906011530 28 268 3.2 9.7 0.00 0.00 0.00 28 1016.9
20260906011020 28 300 0.0 6.4 0.00 0.00 0.00 28 1016.9
20260906010517 28 311 1.6 6.4 0.00 0.00 0.00 28 1017.0
20260906010014 28 237 0.0 6.4 0.00 0.00 0.00 29 1017.0
20260906005510 29 245 1.6 6.4 0.00 0.00 0.00 29 1017.0
20260906005014 29 238 0.0 3.2 0.00 0.00 0.00 29 1017.0
20260906004526 29 310 0.0 4.8 0.00 0.00 0.00 28 1017.1
20260906004017 29 296 1.6 11.3 0.00 0.00 0.00 28 1017.1
20260906003516 30 286 1.6 11.3 0.00 0.00 0.00 28 1017.0
20260906003037 30 257 1.6 12.9 0.00 0.00 0.00 27 1017.1
20260906002518 30 5 1.6 12.9 0.00 0.00 0.00 27 1017.2
20260906002011 30 256 3.2 12.9 0.00 0.00 0.00 26 1017.2
20260906001516 31 284 4.8 12.9 0.00 0.00 0.00 25 1017.1
20260906001014 31 303 0.0 4.8 0.00 0.00 0.00 25 1017.1
20260906000514 31 321 1.6 8.0 0.00 0.00 0.00 24 1016.9
20260906000030 32 5 0.0 8.0 0.00 0.00 0.00 25 1016.9
20260905235516 32 338 3.2 9.7 0.00 0.00 0.00 22 1016.9
20260905235021 32 275 3.2 9.7 0.00 0.00 0.00 22 1017.1
20260905234535 31 5 1.6 3.2 0.00 0.00 0.00 23 1017.1
20260905234011 31 347 0.0 6.4 0.00 0.00 0.00 23 1017.0
20260905233512 31 337 1.6 6.4 0.00 0.00 0.00 23 1017.0
20260905233023 31 351 1.6 4.8 0.00 0.00 0.00 23 1016.8
20260905232515 32 320 1.6 4.8 0.00 0.00 0.00 22 1016.8
20260905232014 32 329 0.0 3.2 0.00 0.00 0.00 23 1016.8
20260905231532 32 13 0.0 3.2 0.00 0.00 0.00 23 1016.8
20260905231018 32 349 0.0 4.8 0.00 0.00 0.00 21 1016.7
20260905230515 32 345 1.6 6.4 0.00 0.00 0.00 22 1016.7